GW5802 Weather Reports


Display with metric or nautical units.
time (UTC)temp
F
wind
direction
speed
MPH
gust
MPH
rain 1hr
in
rain 24hr
in
rain mn
in
humidity
%
barometer
mb
20260504130354 60 199 4.0 11.0 0.00 0.00 0.00 60 1015.7
20260504120317 55 230 4.0 6.0 0.00 0.00 0.00 72 1016.3
20260504110241 52 219 1.0 3.0 0.00 0.00 0.00 77 1016.8
20260504100205 51 141 1.0 2.0 0.00 0.00 0.00 76 1016.5
20260504090128 51 248 2.0 8.0 0.00 0.00 0.00 76 1016.8
20260504081558 50 193 3.0 6.0 0.00 0.00 0.00 75 1016.8
20260504081054 50 204 2.0 3.0 0.00 0.00 0.00 75 1016.9
20260504080551 50 226 3.0 4.0 0.00 0.00 0.00 74 1017.0
20260504050403 48 190 3.0 4.0 0.00 0.00 0.00 58 1016.8
20260504045900 48 236 3.0 4.0 0.00 0.00 0.00 58 1016.8
20260504045355 48 239 2.0 6.0 0.00 0.00 0.00 59 1016.7
20260504044852 48 281 1.0 2.0 0.00 0.00 0.00 59 1016.7
20260504044350 48 283 1.0 4.0 0.00 0.00 0.00 59 1016.7
20260504043847 47 342 1.0 3.0 0.00 0.00 0.00 60 1016.8
20260504043344 47 249 1.0 3.0 0.00 0.00 0.00 61 1016.9
20260504042841 46 258 1.0 1.0 0.00 0.00 0.00 62 1016.7
20260504042337 46 314 1.0 1.0 0.00 0.00 0.00 61 1016.7
20260504041834 46 317 1.0 2.0 0.00 0.00 0.00 61 1016.5
20260504041330 47 279 0.0 1.0 0.00 0.00 0.00 60 1016.6
20260504040826 47 358 0.0 1.0 0.00 0.00 0.00 59 1016.3
20260504040324 47 354 0.0 0.0 0.00 0.00 0.00 59 1016.5
20260504035820 47 332 0.0 2.0 0.00 0.00 0.00 59 1016.3
20260504035318 48 325 1.0 1.0 0.00 0.00 0.00 58 1016.3
20260504034814 47 304 1.0 2.0 0.00 0.00 0.00 58 1016.3
20260504034312 47 333 1.0 2.0 0.00 0.00 0.00 58 1016.3
20260504033809 47 359 0.0 2.0 0.00 0.00 0.00 59 1016.2
20260504033307 47 337 0.0 1.0 0.00 0.00 0.00 59 1016.1
20260504032803 47 357 0.0 2.0 0.00 0.00 0.00 59 1016.1
20260504032300 47 354 0.0 0.0 0.00 0.00 0.00 59 1016.2
20260504031757 46 272 1.0 2.0 0.00 0.00 0.00 60 1016.0
20260504031254 46 338 1.0 1.0 0.00 0.00 0.00 61 1016.1
20260504030750 46 10 0.0 0.0 0.00 0.00 0.00 63 1016.0
20260504030248 46 18 0.0 0.0 0.00 0.00 0.00 62 1016.1
20260504025744 46 344 0.0 1.0 0.00 0.00 0.00 62 1016.2
20260504025241 46 17 0.0 0.0 0.00 0.00 0.00 59 1016.2
20260504024738 46 0 0.0 0.0 0.00 0.00 0.00 59 1016.1
20260504024234 46 0 0.0 0.0 0.00 0.00 0.00 61 1016.1
20260504023731 45 19 0.0 0.0 0.00 0.00 0.00 62 1016.0
20260504023227 45 7 0.0 0.0 0.00 0.00 0.00 63 1016.0
20260504022723 44 359 0.0 0.0 0.00 0.00 0.00 64 1016.2
20260504022220 45 359 0.0 0.0 0.00 0.00 0.00 65 1016.3
20260504021717 45 359 0.0 0.0 0.00 0.00 0.00 64 1016.2
20260504021214 45 359 0.0 0.0 0.00 0.00 0.00 63 1016.2
20260504020711 46 359 0.0 0.0 0.00 0.00 0.00 61 1016.2
20260504020207 46 359 0.0 0.0 0.00 0.00 0.00 62 1016.0
20260504015704 46 359 0.0 0.0 0.00 0.00 0.00 61 1016.1
20260504015200 46 359 0.0 0.0 0.00 0.00 0.00 62 1015.7
20260504014655 47 359 0.0 0.0 0.00 0.00 0.00 61 1015.7
20260504014153 47 8 0.0 0.0 0.00 0.00 0.00 57 1015.8
20260504013651 47 10 0.0 1.0 0.00 0.00 0.00 59 1015.9
20260504013147 47 259 0.0 0.0 0.00 0.00 0.00 60 1015.9
20260504012644 48 11 0.0 0.0 0.00 0.00 0.00 59 1016.0
20260504012142 47 30 0.0 0.0 0.00 0.00 0.00 58 1015.8
20260504011639 47 31 0.0 0.0 0.00 0.00 0.00 61 1015.8
20260504011136 47 15 0.0 0.0 0.00 0.00 0.00 60 1015.6
20260504010631 47 349 0.0 0.0 0.00 0.00 0.00 59 1015.6
20260504010127 48 17 0.0 0.0 0.00 0.00 0.00 55 1015.7
20260504005625 48 18 0.0 0.0 0.00 0.00 0.00 54 1015.4
20260504005121 48 5 0.0 0.0 0.00 0.00 0.00 55 1015.6
20260504004620 48 27 0.0 0.0 0.00 0.00 0.00 53 1015.4
20260504004116 49 6 0.0 0.0 0.00 0.00 0.00 54 1015.5
20260504003613 49 12 0.0 0.0 0.00 0.00 0.00 53 1015.5
20260504003109 50 346 0.0 1.0 0.00 0.00 0.00 51 1015.0
20260504002606 51 346 0.0 1.0 0.00 0.00 0.00 50 1015.1
20260504002104 51 18 0.0 0.0 0.00 0.00 0.00 48 1014.9
20260504001601 52 16 0.0 0.0 0.00 0.00 0.00 47 1014.9
20260504001057 53 35 0.0 0.0 0.00 0.00 0.00 44 1014.9
20260504000554 54 21 0.0 0.0 0.00 0.00 0.00 42 1014.9
20260504000052 55 351 0.0 1.0 0.00 0.00 0.00 42 1014.9
20260503235550 56 358 1.0 1.0 0.00 0.00 0.00 39 1014.8
20260503235047 56 332 1.0 4.0 0.00 0.00 0.00 37 1014.7
20260503234544 57 221 1.0 2.0 0.00 0.00 0.00 36 1014.9
20260503234043 58 276 2.0 4.0 0.00 0.00 0.00 35 1014.9
20260503233538 58 272 1.0 3.0 0.00 0.00 0.00 34 1014.7
20260503233034 58 238 2.0 6.0 0.00 0.00 0.00 34 1014.8
20260503232532 58 264 3.0 10.0 0.00 0.00 0.00 34 1014.9
20260503232029 59 260 5.0 6.0 0.00 0.00 0.00 34 1014.8
20260503231527 59 271 4.0 8.0 0.00 0.00 0.00 33 1014.8
20260503231023 59 281 3.0 4.0 0.00 0.00 0.00 33 1014.6
20260503230520 60 278 3.0 6.0 0.00 0.00 0.00 33 1014.7
20260503230018 60 334 2.0 3.0 0.00 0.00 0.00 33 1014.6
20260503225514 60 264 3.0 8.0 0.00 0.00 0.00 32 1014.6
20260503225009 60 359 6.0 9.0 0.00 0.00 0.00 32 1014.6
20260503224507 60 291 7.0 11.0 0.00 0.00 0.00 32 1014.5
20260503224005 60 94 4.0 8.0 0.00 0.00 0.00 32 1014.5
20260503223502 60 242 3.0 8.0 0.00 0.00 0.00 32 1014.7
20260503222957 60 218 6.0 14.0 0.00 0.00 0.00 32 1014.6
20260503222456 60 212 7.0 11.0 0.00 0.00 0.00 31 1014.3
20260503221954 60 275 4.0 13.0 0.00 0.00 0.00 31 1014.4
20260503221452 60 258 6.0 13.0 0.00 0.00 0.00 32 1014.5
20260503220949 60 244 9.0 16.0 0.00 0.00 0.00 32 1014.5
20260503220445 60 243 8.0 11.0 0.00 0.00 0.00 32 1014.5
20260503215942 60 331 8.0 11.0 0.00 0.00 0.00 31 1014.5
20260503215439 60 233 8.0 13.0 0.00 0.00 0.00 31 1014.7
20260503214937 60 240 11.0 14.0 0.00 0.00 0.00 31 1014.4
20260503214434 60 229 3.0 11.0 0.00 0.00 0.00 33 1014.5
20260503213931 60 235 5.0 10.0 0.00 0.00 0.00 32 1014.3
20260503213430 60 253 4.0 8.0 0.00 0.00 0.00 31 1014.5
20260503212925 60 13 3.0 8.0 0.00 0.00 0.00 31 1014.5
20260503212423 61 234 12.0 16.0 0.00 0.00 0.00 30 1014.2
20260503211920 60 266 7.0 11.0 0.00 0.00 0.00 31 1014.5
20260503211417 60 220 3.0 11.0 0.00 0.00 0.00 31 1014.2
20260503210912 60 250 7.0 11.0 0.00 0.00 0.00 30 1014.2
20260503210410 60 321 8.0 8.0 0.00 0.00 0.00 31 1014.3
20260503205904 60 245 4.0 11.0 0.00 0.00 0.00 32 1014.2
20260503205402 60 341 5.0 16.0 0.00 0.00 0.00 31 1014.2
20260503204858 59 289 7.0 11.0 0.00 0.00 0.00 31 1014.2
20260503204355 60 224 7.0 10.0 0.00 0.00 0.00 32 1014.3
20260503203852 60 270 9.0 10.0 0.00 0.00 0.00 31 1014.1
20260503203350 60 344 8.0 11.0 0.00 0.00 0.00 31 1014.2
20260503202846 60 190 11.0 16.0 0.00 0.00 0.00 30 1014.2
20260503202345 59 230 9.0 11.0 0.00 0.00 0.00 31 1014.3
20260503201843 60 259 7.0 10.0 0.00 0.00 0.00 31 1014.3
20260503201339 60 269 8.0 14.0 0.00 0.00 0.00 31 1014.0
20260503200837 59 231 10.0 16.0 0.00 0.00 0.00 32 1014.5
20260503200332 60 241 11.0 15.0 0.00 0.00 0.00 30 1014.6
20260503195830 59 27 5.0 9.0 0.00 0.00 0.00 31 1014.4
20260503195326 60 242 8.0 17.0 0.00 0.00 0.00 31 1014.3
20260503194824 59 299 3.0 11.0 0.00 0.00 0.00 32 1014.5
20260503194319 58 272 12.0 16.0 0.00 0.00 0.00 31 1014.5
20260503193816 59 215 8.0 9.0 0.00 0.00 0.00 33 1014.4
20260503193312 59 227 5.0 9.0 0.00 0.00 0.00 32 1014.5
20260503192808 60 248 6.0 13.0 0.00 0.00 0.00 32 1014.6
20260503192305 58 345 4.0 9.0 0.00 0.00 0.00 33 1014.6
20260503191800 59 347 14.0 17.0 0.00 0.00 0.00 32 1014.7
20260503191257 58 259 3.0 10.0 0.00 0.00 0.00 35 1014.6
20260503190754 58 215 8.0 13.0 0.00 0.00 0.00 33 1014.6
20260503190251 59 0 9.0 13.0 0.00 0.00 0.00 32 1014.6
20260503185748 58 344 5.0 10.0 0.00 0.00 0.00 33 1014.7
20260503185243 59 328 9.0 15.0 0.00 0.00 0.00 31 1014.8
20260503184738 59 253 3.0 10.0 0.00 0.00 0.00 33 1014.6
20260503184235 59 329 5.0 9.0 0.00 0.00 0.00 33 1014.8
20260503183731 58 244 6.0 13.0 0.00 0.00 0.00 34 1014.8
20260503183229 58 265 3.0 9.0 0.00 0.00 0.00 36 1015.0
20260503182726 58 315 7.0 15.0 0.00 0.00 0.00 33 1015.1
20260503182225 58 311 5.0 14.0 0.00 0.00 0.00 35 1015.1
20260503181721 57 249 2.0 9.0 0.00 0.00 0.00 34 1014.8
20260503181218 57 325 9.0 15.0 0.00 0.00 0.00 33 1015.1
20260503180714 57 254 7.0 16.0 0.00 0.00 0.00 36 1015.1
20260503180213 57 270 7.0 16.0 0.00 0.00 0.00 37 1015.0
20260503175710 58 284 6.0 11.0 0.00 0.00 0.00 35 1015.0
20260503175208 57 1 6.0 14.0 0.00 0.00 0.00 36 1015.0
20260503174703 56 340 7.0 10.0 0.00 0.00 0.00 36 1015.2
20260503174201 56 13 9.0 11.0 0.00 0.00 0.00 38 1015.1
20260503173656 56 257 5.0 9.0 0.00 0.00 0.00 37 1015.0
20260503173152 56 10 9.0 16.0 0.00 0.00 0.00 37 1015.2
20260503172649 57 272 3.0 8.0 0.00 0.00 0.00 40 1014.9
20260503172147 55 348 4.0 7.0 0.00 0.00 0.00 39 1015.2
20260503171643 56 11 4.0 9.0 0.00 0.00 0.00 39 1015.2
20260503171141 56 235 6.0 11.0 0.00 0.00 0.00 38 1015.2
20260503170637 55 348 9.0 13.0 0.00 0.00 0.00 40 1015.1
20260503170134 55 234 6.0 8.0 0.00 0.00 0.00 38 1015.2
20260503150526 51 271 6.0 8.0 0.00 0.00 0.00 48 1015.4